BEL5MC EDDH-EBBR

Flight info

Callsign BEL5MC
Flight time N/A
Altitude 34000
Route WSN5G/33 WSN N125 ONTAZ DCT SUSET/N0428F330 Z310 WOODY
Aircraft A320/M-SDE3FGHIRWY/LB1

Departure

Time 2026-04-23 19:08
Airport Hamburg Helmut Schmidt Airport (EDDH)

Arrival

Time N/A
Airport Brussels Airport (EBBR)
Time Latitude Longitude Altitude Speed Heading
2026-04-23 18:13 53.62772 10.00271 49 ft 0 kts 62°
2026-04-23 19:00 53.62764 10.00246 48 ft 4 kts 57°
2026-04-23 19:00 53.62748 10.00211 46 ft 4 kts 42°
2026-04-23 19:00 53.62726 10.00187 48 ft 4 kts
2026-04-23 19:01 53.62709 10.00189 45 ft 0 kts 333°
2026-04-23 19:05 53.62714 10.00185 46 ft 4 kts 333°
2026-04-23 19:05 53.62764 10.00142 48 ft 10 kts 333°
2026-04-23 19:05 53.62841 10.00068 48 ft 15 kts 314°
2026-04-23 19:06 53.62846 9.99959 48 ft 0 kts 249°
2026-04-23 19:07 53.62832 9.99899 45 ft 11 kts 249°
2026-04-23 19:07 53.62841 9.99778 45 ft 12 kts 335°
2026-04-23 19:07 53.62924 9.99710 45 ft 15 kts 333°
2026-04-23 19:08 53.63135 9.99513 46 ft 68 kts 332°
2026-04-23 19:08 53.63746 9.98972 46 ft 128 kts 332°
2026-04-23 19:08 53.64648 9.98186 317 ft 148 kts 329°
2026-04-23 19:08 53.65253 9.97707 804 ft 145 kts 330°
2026-04-23 19:09 53.66446 9.96702 1766 ft 143 kts 333°
2026-04-23 19:09 53.67062 9.96175 2101 ft 153 kts 333°
2026-04-23 19:09 53.68442 9.94990 2565 ft 181 kts 334°
2026-04-23 19:09 53.69594 9.94000 3179 ft 188 kts 334°
2026-04-23 19:10 53.70384 9.93313 3628 ft 191 kts 332°
2026-04-23 19:10 53.71326 9.91735 4298 ft 201 kts 300°
2026-04-23 19:10 53.71508 9.89280 4847 ft 230 kts 266°
2026-04-23 19:10 53.71074 9.86510 5223 ft 257 kts 259°
2026-04-23 19:11 53.70489 9.83581 5923 ft 268 kts 257°
2026-04-23 19:11 53.69851 9.80588 6777 ft 273 kts 256°
2026-04-23 19:11 53.69203 9.77546 7584 ft 277 kts 256°
2026-04-23 19:11 53.68558 9.74462 8420 ft 281 kts 256°
2026-04-23 19:12 53.67917 9.71328 9250 ft 285 kts 257°
2026-04-23 19:12 53.67280 9.68161 9670 ft 289 kts 257°
2026-04-23 19:12 53.66639 9.64948 9927 ft 289 kts 257°
2026-04-23 19:12 53.65990 9.61681 10184 ft 291 kts 257°
2026-04-23 19:13 53.65282 9.58438 10266 ft 309 kts 249°
2026-04-23 19:13 53.64116 9.55215 10279 ft 332 kts 238°
2026-04-23 19:13 53.62751 9.52035 10281 ft 346 kts 238°
2026-04-23 19:13 53.61285 9.48611 10269 ft 374 kts 238°
2026-04-23 19:14 53.59746 9.45029 10278 ft 387 kts 237°
2026-04-23 19:14 53.58154 9.41345 10278 ft 390 kts 237°
2026-04-23 19:14 53.56521 9.37578 10591 ft 396 kts 237°
2026-04-23 19:14 53.54947 9.33953 11787 ft 380 kts 237°
2026-04-23 19:15 53.53424 9.30452 13183 ft 363 kts 237°
2026-04-23 19:15 53.51944 9.27040 14152 ft 361 kts 237°
2026-04-23 19:15 53.50462 9.23611 14832 ft 364 kts 237°
2026-04-23 19:15 53.48971 9.20159 15495 ft 366 kts 237°
2026-04-23 19:16 53.47469 9.16688 16140 ft 369 kts 237°
2026-04-23 19:16 53.45951 9.13183 16786 ft 372 kts 237°
2026-04-23 19:16 53.44427 9.09668 17417 ft 375 kts 236°
2026-04-23 19:17 53.41328 9.02546 18657 ft 381 kts 237°
2026-04-23 19:17 53.39755 8.98947 19206 ft 384 kts 236°
2026-04-23 19:17 53.38176 8.95339 19740 ft 386 kts 235°
2026-04-23 19:17 53.36578 8.91693 20282 ft 389 kts 236°
2026-04-23 19:18 53.35047 8.87943 20810 ft 390 kts 243°
2026-04-23 19:18 53.33905 8.83829 21371 ft 390 kts 252°
2026-04-23 19:18 53.32973 8.79577 21907 ft 393 kts 252°
2026-04-23 19:18 53.32027 8.75265 22451 ft 396 kts 251°
2026-04-23 19:19 53.30106 8.66599 23528 ft 400 kts 252°
2026-04-23 19:19 53.29137 8.62222 24031 ft 403 kts 252°
2026-04-23 19:20 53.27199 8.53381 24865 ft 408 kts 251°
2026-04-23 19:20 53.26227 8.48915 25263 ft 410 kts 252°
2026-04-23 19:20 53.25311 8.44392 25646 ft 413 kts 254°
2026-04-23 19:20 53.24445 8.39804 26050 ft 415 kts 253°
2026-04-23 19:21 53.23604 8.35185 26409 ft 417 kts 254°
2026-04-23 19:21 53.21901 8.25875 27150 ft 422 kts 254°
2026-04-23 19:21 53.21022 8.21177 27507 ft 425 kts 253°
2026-04-23 19:22 53.20130 8.16470 27885 ft 426 kts 252°
2026-04-23 19:22 53.19226 8.11752 28268 ft 428 kts 252°
2026-04-23 19:22 53.17414 8.02250 28927 ft 433 kts 252°
2026-04-23 19:23 53.16517 7.97491 29701 ft 423 kts 252°
2026-04-23 19:23 53.15648 7.92864 30486 ft 416 kts 252°
2026-04-23 19:23 53.14785 7.88284 30993 ft 413 kts 252°
2026-04-23 19:24 53.13060 7.79217 31888 ft 409 kts 252°
2026-04-23 19:24 53.12200 7.74720 32360 ft 407 kts 252°
2026-04-23 19:24 53.10482 7.65777 33193 ft 404 kts 252°
2026-04-23 19:25 53.08766 7.56888 33810 ft 406 kts 250°
2026-04-23 19:25 53.07003 7.47839 34084 ft 416 kts 251°
2026-04-23 19:26 53.05195 7.38595 34346 ft 426 kts 250°
2026-04-23 19:26 53.04271 7.33883 34356 ft 433 kts 250°
2026-04-23 19:27 53.02356 7.24242 34359 ft 445 kts 246°
2026-04-23 19:27 52.97592 7.11008 34359 ft 447 kts 234°
2026-04-23 19:28 52.90590 6.94035 34370 ft 447 kts 234°
2026-04-23 19:29 52.85307 6.81314 34380 ft 447 kts 234°
2026-04-23 19:30 52.80008 6.68620 34389 ft 446 kts 233°
2026-04-23 19:31 52.74693 6.55981 34398 ft 443 kts 233°
2026-04-23 19:31 52.71185 6.47643 34401 ft 441 kts 233°
2026-04-23 19:32 52.67678 6.39355 34409 ft 440 kts 233°
2026-04-23 19:32 52.64173 6.31105 34403 ft 439 kts 233°
2026-04-23 19:33 52.60667 6.22883 34402 ft 439 kts 233°
2026-04-23 19:33 52.55404 6.10561 34398 ft 439 kts 232°
2026-04-23 19:34 52.51915 6.02405 34391 ft 439 kts 232°
2026-04-23 19:35 52.46628 5.90132 34411 ft 438 kts 232°
2026-04-23 19:35 52.43100 5.81987 34412 ft 438 kts 232°
2026-04-23 19:36 52.39570 5.73862 34416 ft 437 kts 232°
2026-04-23 19:36 52.36041 5.65758 34409 ft 437 kts 231°
2026-04-23 19:37 52.32502 5.57658 34414 ft 438 kts 231°
2026-04-23 19:37 52.28959 5.49560 34409 ft 438 kts 231°
2026-04-23 19:38 52.25413 5.41488 34416 ft 438 kts 231°
2026-04-23 19:38 52.21873 5.33457 34421 ft 437 kts 231°
2026-04-23 19:39 52.18318 5.25434 34419 ft 436 kts 231°
2026-04-23 19:39 52.14666 5.17576 34410 ft 433 kts 223°
2026-04-23 19:40 52.09972 5.11657 34402 ft 425 kts 205°
2026-04-23 19:40 52.04541 5.08014 34398 ft 422 kts 198°
2026-04-23 19:41 51.99049 5.04621 34391 ft 423 kts 198°
2026-04-23 19:41 51.93549 5.01206 34392 ft 423 kts 198°
2026-04-23 19:42 51.88048 4.97799 34389 ft 423 kts 198°
2026-04-23 19:42 51.82551 4.94422 34389 ft 423 kts 198°
2026-04-23 19:43 51.77023 4.91038 33116 ft 431 kts 198°
2026-04-23 19:43 51.74175 4.89299 31826 ft 442 kts 198°
2026-04-23 19:43 51.71326 4.87557 31371 ft 432 kts 198°
2026-04-23 19:43 51.68532 4.85844 30786 ft 427 kts 198°
2026-04-23 19:44 51.65765 4.84152 30159 ft 423 kts 198°
2026-04-23 19:44 51.63028 4.82482 29577 ft 418 kts 198°
2026-04-23 19:44 51.60377 4.80639 28996 ft 414 kts 206°
2026-04-23 19:44 51.57966 4.78132 28440 ft 413 kts 216°
2026-04-23 19:45 51.55868 4.74996 27870 ft 412 kts 226°
2026-04-23 19:45 51.54165 4.71376 27324 ft 412 kts 235°
2026-04-23 19:45 51.52664 4.67469 26754 ft 409 kts 236°
2026-04-23 19:45 51.51168 4.63608 26217 ft 406 kts 236°
2026-04-23 19:46 51.49653 4.59723 25671 ft 404 kts 236°
2026-04-23 19:46 51.48182 4.55977 25163 ft 401 kts 236°
2026-04-23 19:46 51.46661 4.52120 24294 ft 408 kts 236°
2026-04-23 19:46 51.45146 4.48288 23376 ft 415 kts 236°
2026-04-23 19:47 51.44102 4.45648 22898 ft 415 kts 236°
2026-04-23 19:47 51.42276 4.40289 22083 ft 414 kts 250°
2026-04-23 19:47 51.41413 4.35902 21541 ft 411 kts 252°
2026-04-23 19:47 51.40601 4.31581 21255 ft 401 kts 253°
2026-04-23 19:48 51.39780 4.27261 20441 ft 407 kts 253°
2026-04-23 19:48 51.38937 4.22935 19829 ft 407 kts 252°
2026-04-23 19:48 51.38079 4.18638 19357 ft 404 kts 252°
2026-04-23 19:48 51.37218 4.14387 18908 ft 400 kts 253°
2026-04-23 19:49 51.36349 4.10173 18373 ft 397 kts 252°
2026-04-23 19:49 51.35486 4.06036 18180 ft 385 kts 252°
2026-04-23 19:49 51.34651 4.02035 17959 ft 374 kts 252°
2026-04-23 19:49 51.33838 3.98123 17571 ft 369 kts 253°
2026-04-23 19:50 51.33022 3.94230 17352 ft 368 kts 253°
2026-04-23 19:50 51.32198 3.90338 17386 ft 369 kts 252°
2026-04-23 19:50 51.31378 3.86447 17385 ft 369 kts 252°
2026-04-23 19:50 51.30566 3.82573 17385 ft 368 kts 253°
2026-04-23 19:51 51.29754 3.78682 17386 ft 369 kts 252°
2026-04-23 19:51 51.29220 3.76102 17388 ft 369 kts 252°
2026-04-23 19:51 51.28416 3.72209 17387 ft 369 kts 252°
2026-04-23 19:51 51.27616 3.68319 17387 ft 368 kts 252°
2026-04-23 19:52 51.26828 3.64427 17388 ft 369 kts 252°
2026-04-23 19:52 51.26037 3.60529 17392 ft 370 kts 252°
2026-04-23 19:52 51.25243 3.56619 17390 ft 369 kts 252°
2026-04-23 19:52 51.24452 3.52722 17392 ft 369 kts 252°
2026-04-23 19:53 51.23667 3.48845 17380 ft 361 kts 252°
2026-04-23 19:53 51.22910 3.45121 17330 ft 347 kts 252°
2026-04-23 19:53 51.22180 3.41557 17201 ft 327 kts 252°
2026-04-23 19:53 51.21494 3.38209 17068 ft 307 kts 252°
2026-04-23 19:54 51.20840 3.35018 16938 ft 299 kts 252°
2026-04-23 19:54 51.20205 3.31918 16705 ft 291 kts 252°
2026-04-23 19:54 51.19592 3.28859 16200 ft 288 kts 252°
2026-04-23 19:54 51.18986 3.25817 15656 ft 288 kts 252°
2026-04-23 19:55 51.18379 3.22781 15182 ft 285 kts 252°
2026-04-23 19:55 51.17769 3.19758 14590 ft 291 kts 252°
2026-04-23 19:55 51.17145 3.16679 14271 ft 292 kts 252°
2026-04-23 19:55 51.16519 3.13600 13900 ft 293 kts 252°
2026-04-23 19:56 51.15773 3.10606 13578 ft 291 kts 237°
2026-04-23 19:56 51.14372 3.08356 13376 ft 287 kts 208°
2026-04-23 19:56 51.12515 3.07389 13384 ft 284 kts 181°
2026-04-23 19:56 51.10526 3.07499 13380 ft 283 kts 168°
2026-04-23 19:57 51.08726 3.08618 13344 ft 277 kts 142°
2026-04-23 19:57 51.07461 3.10833 13008 ft 270 kts 115°
2026-04-23 19:57 51.06739 3.13571 12689 ft 268 kts 108°
2026-04-23 19:57 51.06123 3.16326 12343 ft 268 kts 107°
2026-04-23 19:58 51.05507 3.19138 12019 ft 267 kts 107°
2026-04-23 19:58 51.04906 3.21892 11712 ft 265 kts 107°
2026-04-23 19:58 51.04304 3.24651 11437 ft 263 kts 107°
2026-04-23 19:58 51.03704 3.27391 11383 ft 263 kts 107°
2026-04-23 19:59 51.03092 3.30140 11389 ft 264 kts 107°
2026-04-23 19:59 51.02485 3.32893 11391 ft 265 kts 107°
2026-04-23 19:59 51.01872 3.35658 11391 ft 266 kts 107°
2026-04-23 19:59 51.01258 3.38432 11388 ft 266 kts 107°
2026-04-23 20:00 51.00645 3.41197 11263 ft 264 kts 107°
2026-04-23 20:00 51.00036 3.43936 10956 ft 263 kts 107°
2026-04-23 20:00 50.99428 3.46666 10638 ft 261 kts 107°
2026-04-23 20:00 50.98824 3.49374 10335 ft 260 kts 107°
2026-04-23 20:01 50.98220 3.52063 9996 ft 258 kts 108°
2026-04-23 20:01 50.97461 3.54650 9648 ft 258 kts 118°
2026-04-23 20:01 50.96479 3.57029 9391 ft 257 kts 122°
2026-04-23 20:01 50.95454 3.59372 9373 ft 259 kts 122°
2026-04-23 20:02 50.94422 3.61717 9376 ft 259 kts 122°
2026-04-23 20:02 50.93387 3.64066 9377 ft 260 kts 122°
2026-04-23 20:02 50.92352 3.66415 9377 ft 260 kts 122°
2026-04-23 20:02 50.91319 3.68761 9377 ft 260 kts 122°
2026-04-23 20:03 50.90288 3.71103 9376 ft 258 kts 122°
2026-04-23 20:03 50.89278 3.73386 9375 ft 250 kts 122°
2026-04-23 20:03 50.88280 3.75635 9376 ft 249 kts 122°
2026-04-23 20:03 50.87295 3.77846 9374 ft 250 kts 122°
2026-04-23 20:04 50.86287 3.80103 9372 ft 250 kts 122°
2026-04-23 20:04 50.85269 3.82382 9372 ft 250 kts 122°
2026-04-23 20:04 50.84278 3.84605 9372 ft 251 kts 122°
2026-04-23 20:04 50.83274 3.86859 9371 ft 251 kts 122°
2026-04-23 20:05 50.82270 3.89111 9372 ft 251 kts 122°
2026-04-23 20:05 50.81265 3.91366 9336 ft 250 kts 122°
2026-04-23 20:05 50.80270 3.93605 9015 ft 248 kts 122°
2026-04-23 20:05 50.79284 3.95834 8653 ft 247 kts 122°
2026-04-23 20:06 50.78306 3.98049 8238 ft 244 kts 122°
2026-04-23 20:06 50.77337 4.00245 7708 ft 244 kts 122°
2026-04-23 20:06 50.76368 4.02439 7324 ft 242 kts 122°
2026-04-23 20:06 50.75405 4.04618 6939 ft 242 kts 123°
2026-04-23 20:07 50.74447 4.06791 6602 ft 240 kts 122°
2026-04-23 20:07 50.73493 4.08948 6250 ft 239 kts 122°
2026-04-23 20:07 50.72543 4.11088 5910 ft 237 kts 122°
2026-04-23 20:07 50.71603 4.13211 5576 ft 235 kts 121°
2026-04-23 20:08 50.70927 4.15506 5234 ft 228 kts 96°
2026-04-23 20:08 50.70908 4.17979 4870 ft 225 kts 84°
2026-04-23 20:08 50.71040 4.20429 4534 ft 223 kts 83°
2026-04-23 20:08 50.71190 4.22867 4210 ft 222 kts 83°
2026-04-23 20:09 50.71340 4.25283 3901 ft 220 kts 83°
2026-04-23 20:09 50.71491 4.27676 3580 ft 219 kts 82°
2026-04-23 20:09 50.71641 4.30065 3271 ft 218 kts 83°
2026-04-23 20:09 50.71790 4.32403 3112 ft 209 kts 83°
2026-04-23 20:10 50.71885 4.33889 3048 ft 202 kts 83°
2026-04-23 20:10 50.72171 4.36669 2997 ft 188 kts 63°
2026-04-23 20:10 50.72977 4.38257 3011 ft 186 kts 43°
2026-04-23 20:10 50.73942 4.39557 3044 ft 180 kts 40°
2026-04-23 20:11 50.74909 4.40751 2826 ft 175 kts 39°
2026-04-23 20:11 50.75903 4.41855 2520 ft 174 kts 33°
2026-04-23 20:11 50.76933 4.42831 2216 ft 169 kts 32°
2026-04-23 20:11 50.77938 4.43754 2013 ft 167 kts 31°
2026-04-23 20:12 50.78944 4.44688 2014 ft 168 kts 31°
2026-04-23 20:12 50.80055 4.45310 2012 ft 173 kts 13°
2026-04-23 20:12 50.81253 4.45559 2010 ft 174 kts